Data supplied by UK-AIR on 13/3/2021
All Data GMT hour ending 
Status: R =Ratified P=Provisional,P*=As supplied
,,Tower Hamlets Roadside,,,,,,,,,,,,,,,,,,,,,,,
Date,time,"Nitric oxide",status,unit,"Nitrogen dioxide",status,unit,"Nitrogen oxides as nitrogen dioxide",status,unit
 
01-01-2020,01:00,26.37993,R,ugm-3,23.90116,R,ugm-3,64.34982,R,ugm-3
01-01-2020,02:00,27.83711,R,ugm-3,24.96095,R,ugm-3,67.64392,R,ugm-3
01-01-2020,03:00,35.65059,R,ugm-3,24.27996,R,ugm-3,78.94344,R,ugm-3
01-01-2020,04:00,23.17666,R,ugm-3,23.35454,R,ugm-3,58.89158,R,ugm-3
01-01-2020,05:00,12.96385,R,ugm-3,23.32868,R,ugm-3,43.20631,R,ugm-3
01-01-2020,06:00,13.45377,R,ugm-3,24.07132,R,ugm-3,44.70014,R,ugm-3
01-01-2020,07:00,26.60605,R,ugm-3,24.35883,R,ugm-3,65.15419,R,ugm-3
01-01-2020,08:00,39.04230,R,ugm-3,23.44601,R,ugm-3,83.31004,R,ugm-3
01-01-2020,09:00,41.41649,R,ugm-3,22.85076,R,ugm-3,86.35516,R,ugm-3
01-01-2020,10:00,42.73549,R,ugm-3,23.41381,R,ugm-3,88.94064,R,ugm-3
01-01-2020,11:00,51.70467,R,ugm-3,25.46144,R,ugm-3,104.74082,R,ugm-3
01-01-2020,12:00,50.00882,R,ugm-3,28.80863,R,ugm-3,105.48774,R,ugm-3
01-01-2020,13:00,44.16754,R,ugm-3,29.14684,R,ugm-3,96.86946,R,ugm-3
01-01-2020,14:00,23.32740,R,ugm-3,31.74168,R,ugm-3,67.50986,R,ugm-3
01-01-2020,15:00,10.81577,R,ugm-3,31.04641,R,ugm-3,47.63036,R,ugm-3
01-01-2020,16:00,16.35556,R,ugm-3,32.14721,R,ugm-3,57.22538,R,ugm-3
01-01-2020,17:00,12.47394,R,ugm-3,33.21524,R,ugm-3,52.34168,R,ugm-3
01-01-2020,18:00,6.85878,R,ugm-3,34.01113,R,ugm-3,44.52778,R,ugm-3
01-01-2020,19:00,6.40655,R,ugm-3,33.15324,R,ugm-3,42.97649,R,ugm-3
01-01-2020,20:00,10.32586,R,ugm-3,35.41727,R,ugm-3,51.25004,R,ugm-3
01-01-2020,21:00,5.99201,R,ugm-3,35.05288,R,ugm-3,44.24050,R,ugm-3
01-01-2020,22:00,4.55996,R,ugm-3,32.99698,R,ugm-3,39.98882,R,ugm-3
01-01-2020,23:00,6.82110,R,ugm-3,34.81583,R,ugm-3,45.27470,R,ugm-3
01-01-2020,24:00,5.69053,R,ugm-3,34.71077,R,ugm-3,43.43613,R,ugm-3
02-01-2020,01:00,4.37741,R,ugm-3,32.55135,R,ugm-3,39.26329,R,ugm-3
02-01-2020,02:00,2.16355,R,ugm-3,25.36321,R,ugm-3,28.68060,R,ugm-3
02-01-2020,03:00,2.83022,R,ugm-3,23.49744,R,ugm-3,27.83706,R,ugm-3
02-01-2020,04:00,2.03776,R,ugm-3,22.81455,R,ugm-3,25.93908,R,ugm-3
02-01-2020,05:00,2.00002,R,ugm-3,21.37703,R,ugm-3,24.44370,R,ugm-3
02-01-2020,06:00,2.79249,R,ugm-3,23.49779,R,ugm-3,27.77954,R,ugm-3
02-01-2020,07:00,2.52833,R,ugm-3,23.15513,R,ugm-3,27.03185,R,ugm-3
02-01-2020,08:00,4.07552,R,ugm-3,27.10941,R,ugm-3,33.35846,R,ugm-3
02-01-2020,09:00,4.98119,R,ugm-3,29.11409,R,ugm-3,36.75182,R,ugm-3
02-01-2020,10:00,4.33968,R,ugm-3,28.14224,R,ugm-3,34.79632,R,ugm-3
02-01-2020,11:00,5.05667,R,ugm-3,27.67553,R,ugm-3,35.42898,R,ugm-3
02-01-2020,12:00,4.56610,R,ugm-3,26.52975,R,ugm-3,33.53100,R,ugm-3
02-01-2020,13:00,3.69816,R,ugm-3,26.48022,R,ugm-3,32.15065,R,ugm-3
02-01-2020,14:00,4.30194,R,ugm-3,27.10733,R,ugm-3,33.70354,R,ugm-3
02-01-2020,15:00,3.81137,R,ugm-3,27.91704,R,ugm-3,33.76106,R,ugm-3
02-01-2020,16:00,3.43401,R,ugm-3,32.11908,R,ugm-3,37.38448,R,ugm-3
02-01-2020,17:00,4.60383,R,ugm-3,34.00630,R,ugm-3,41.06541,R,ugm-3
02-01-2020,18:00,3.43401,R,ugm-3,35.62747,R,ugm-3,40.89287,R,ugm-3
02-01-2020,19:00,3.69816,R,ugm-3,34.99238,R,ugm-3,40.66281,R,ugm-3
02-01-2020,20:00,6.22649,R,ugm-3,33.24369,R,ugm-3,42.79085,R,ugm-3
02-01-2020,21:00,3.28306,R,ugm-3,29.47479,R,ugm-3,34.50875,R,ugm-3
02-01-2020,22:00,2.49060,R,ugm-3,24.99594,R,ugm-3,28.81480,R,ugm-3
02-01-2020,23:00,2.41513,R,ugm-3,23.55877,R,ugm-3,27.26191,R,ugm-3
02-01-2020,24:00,1.96229,R,ugm-3,20.85975,R,ugm-3,23.86855,R,ugm-3
03-01-2020,01:00,1.86416,R,ugm-3,19.71066,R,ugm-3,22.56899,R,ugm-3
03-01-2020,02:00,1.20919,R,ugm-3,12.27076,R,ugm-3,14.12481,R,ugm-3
03-01-2020,03:00,1.24697,R,ugm-3,11.38759,R,ugm-3,13.29958,R,ugm-3
03-01-2020,04:00,0.90689,R,ugm-3,10.58484,R,ugm-3,11.97539,R,ugm-3
03-01-2020,05:00,0.98246,R,ugm-3,12.36890,R,ugm-3,13.87533,R,ugm-3
03-01-2020,06:00,0.90689,R,ugm-3,17.55129,R,ugm-3,18.94183,R,ugm-3
03-01-2020,07:00,0.98246,R,ugm-3,22.32920,R,ugm-3,23.83562,R,ugm-3
03-01-2020,08:00,1.51148,R,ugm-3,26.23911,R,ugm-3,28.55669,R,ugm-3
03-01-2020,09:00,2.75845,R,ugm-3,36.99339,R,ugm-3,41.22295,R,ugm-3
03-01-2020,10:00,10.01356,R,ugm-3,47.97745,R,ugm-3,63.33136,R,ugm-3
03-01-2020,11:00,5.49171,R,ugm-3,42.16781,R,ugm-3,50.58832,R,ugm-3
03-01-2020,12:00,,,,,,,,,
03-01-2020,13:00,23.61688,R,ugm-3,26.77386,R,ugm-3,62.98591,R,ugm-3
03-01-2020,14:00,18.85572,R,ugm-3,26.99262,R,ugm-3,55.90431,R,ugm-3
03-01-2020,15:00,23.31459,R,ugm-3,35.00986,R,ugm-3,70.75840,R,ugm-3
03-01-2020,16:00,25.61959,R,ugm-3,42.29947,R,ugm-3,81.58230,R,ugm-3
03-01-2020,17:00,22.93672,R,ugm-3,50.15547,R,ugm-3,85.32461,R,ugm-3
03-01-2020,18:00,33.70602,R,ugm-3,53.10277,R,ugm-3,104.78461,R,ugm-3
03-01-2020,19:00,35.89766,R,ugm-3,57.68750,R,ugm-3,112.72981,R,ugm-3
03-01-2020,20:00,30.60748,R,ugm-3,57.50835,R,ugm-3,104.43916,R,ugm-3
03-01-2020,21:00,27.01771,R,ugm-3,53.85832,R,ugm-3,95.28490,R,ugm-3
03-01-2020,22:00,19.23359,R,ugm-3,46.50653,R,ugm-3,75.99763,R,ugm-3
03-01-2020,23:00,14.20792,R,ugm-3,40.97045,R,ugm-3,62.75562,R,ugm-3
03-01-2020,24:00,14.28349,R,ugm-3,37.91830,R,ugm-3,59.81934,R,ugm-3
04-01-2020,01:00,14.26238,R,ugm-3,39.18097,R,ugm-3,61.04965,R,ugm-3
04-01-2020,02:00,5.94686,R,ugm-3,38.18549,R,ugm-3,47.30388,R,ugm-3
04-01-2020,03:00,3.43960,R,ugm-3,27.66979,R,ugm-3,32.94377,R,ugm-3
04-01-2020,04:00,3.21282,R,ugm-3,24.21632,R,ugm-3,29.14257,R,ugm-3
04-01-2020,05:00,2.15448,R,ugm-3,21.00119,R,ugm-3,24.30467,R,ugm-3
04-01-2020,06:00,3.02383,R,ugm-3,20.64730,R,ugm-3,25.28377,R,ugm-3
04-01-2020,07:00,5.25390,R,ugm-3,21.95061,R,ugm-3,30.00648,R,ugm-3
04-01-2020,08:00,5.44289,R,ugm-3,25.28926,R,ugm-3,33.63490,R,ugm-3
04-01-2020,09:00,8.80690,R,ugm-3,26.69690,R,ugm-3,40.20062,R,ugm-3
04-01-2020,10:00,11.22596,R,ugm-3,27.88322,R,ugm-3,45.09611,R,ugm-3
04-01-2020,11:00,11.67953,R,ugm-3,33.40790,R,ugm-3,51.31626,R,ugm-3
04-01-2020,12:00,18.25635,R,ugm-3,44.57577,R,ugm-3,72.56845,R,ugm-3
04-01-2020,13:00,15.30812,R,ugm-3,44.14324,R,ugm-3,67.61537,R,ugm-3
04-01-2020,14:00,20.86440,R,ugm-3,49.27351,R,ugm-3,81.26515,R,ugm-3
04-01-2020,15:00,19.39029,R,ugm-3,60.00010,R,ugm-3,89.73147,R,ugm-3
04-01-2020,16:00,21.80935,R,ugm-3,56.63649,R,ugm-3,90.07703,R,ugm-3
04-01-2020,17:00,22.79209,R,ugm-3,56.33911,R,ugm-3,91.28650,R,ugm-3
04-01-2020,18:00,23.66144,R,ugm-3,57.19470,R,ugm-3,93.47508,R,ugm-3
04-01-2020,19:00,19.35249,R,ugm-3,52.51324,R,ugm-3,82.18665,R,ugm-3
04-01-2020,20:00,25.43794,R,ugm-3,58.84792,R,ugm-3,97.85222,R,ugm-3
04-01-2020,21:00,39.99011,R,ugm-3,62.62499,R,ugm-3,123.94231,R,ugm-3
04-01-2020,22:00,22.75430,R,ugm-3,57.66414,R,ugm-3,92.55357,R,ugm-3
04-01-2020,23:00,37.57105,R,ugm-3,53.89387,R,ugm-3,111.50200,R,ugm-3
04-01-2020,24:00,24.45520,R,ugm-3,51.88845,R,ugm-3,89.38590,R,ugm-3
05-01-2020,01:00,15.67799,R,ugm-3,47.47900,R,ugm-3,71.51825,R,ugm-3
05-01-2020,02:00,4.99074,R,ugm-3,30.52655,R,ugm-3,38.17891,R,ugm-3
05-01-2020,03:00,4.76389,R,ugm-3,24.44082,R,ugm-3,31.74535,R,ugm-3
05-01-2020,04:00,2.15509,R,ugm-3,18.64653,R,ugm-3,21.95096,R,ugm-3
05-01-2020,05:00,1.89043,R,ugm-3,16.05640,R,ugm-3,18.95503,R,ugm-3
05-01-2020,06:00,2.15509,R,ugm-3,14.72877,R,ugm-3,18.03320,R,ugm-3
05-01-2020,07:00,2.45756,R,ugm-3,14.78352,R,ugm-3,18.55173,R,ugm-3
05-01-2020,08:00,2.15509,R,ugm-3,16.28435,R,ugm-3,19.58878,R,ugm-3
05-01-2020,09:00,3.28935,R,ugm-3,18.23248,R,ugm-3,23.27608,R,ugm-3
05-01-2020,10:00,4.12114,R,ugm-3,18.97357,R,ugm-3,25.29257,R,ugm-3
05-01-2020,11:00,5.59568,R,ugm-3,21.60984,R,ugm-3,30.18977,R,ugm-3
05-01-2020,12:00,5.17979,R,ugm-3,22.53561,R,ugm-3,30.47784,R,ugm-3
05-01-2020,13:00,5.93596,R,ugm-3,25.58199,R,ugm-3,34.68366,R,ugm-3
05-01-2020,14:00,8.35571,R,ugm-3,28.61259,R,ugm-3,41.42451,R,ugm-3
05-01-2020,15:00,9.48997,R,ugm-3,36.43735,R,ugm-3,50.98844,R,ugm-3
05-01-2020,16:00,7.10803,R,ugm-3,34.55867,R,ugm-3,45.45749,R,ugm-3
05-01-2020,17:00,8.62037,R,ugm-3,38.05879,R,ugm-3,51.27651,R,ugm-3
05-01-2020,18:00,6.46528,R,ugm-3,31.91452,R,ugm-3,41.82781,R,ugm-3
05-01-2020,19:00,5.06636,R,ugm-3,30.14174,R,ugm-3,37.91005,R,ugm-3
05-01-2020,20:00,6.01158,R,ugm-3,27.71299,R,ugm-3,36.93061,R,ugm-3
05-01-2020,21:00,5.89815,R,ugm-3,26.90747,R,ugm-3,35.95117,R,ugm-3
05-01-2020,22:00,5.29321,R,ugm-3,24.03250,R,ugm-3,32.14864,R,ugm-3
05-01-2020,23:00,3.10031,R,ugm-3,24.16852,R,ugm-3,28.92226,R,ugm-3
05-01-2020,24:00,2.57099,R,ugm-3,19.67964,R,ugm-3,23.62176,R,ugm-3
06-01-2020,01:00,2.67258,R,ugm-3,18.64837,R,ugm-3,22.74626,R,ugm-3
06-01-2020,02:00,1.21022,R,ugm-3,13.35975,R,ugm-3,15.21540,R,ugm-3
06-01-2020,03:00,0.56729,R,ugm-3,10.31118,R,ugm-3,11.18102,R,ugm-3
06-01-2020,04:00,1.32368,R,ugm-3,10.24645,R,ugm-3,12.27606,R,ugm-3
06-01-2020,05:00,0.98331,R,ugm-3,10.01911,R,ugm-3,11.52682,R,ugm-3
06-01-2020,06:00,1.85316,R,ugm-3,11.27889,R,ugm-3,14.12036,R,ugm-3
06-01-2020,07:00,1.81534,R,ugm-3,13.29644,R,ugm-3,16.07992,R,ugm-3
06-01-2020,08:00,2.23135,R,ugm-3,15.13683,R,ugm-3,18.55818,R,ugm-3
06-01-2020,09:00,3.51721,R,ugm-3,16.39271,R,ugm-3,21.78569,R,ugm-3
06-01-2020,10:00,3.25247,R,ugm-3,18.70056,R,ugm-3,23.68762,R,ugm-3
06-01-2020,11:00,4.19796,R,ugm-3,18.11534,R,ugm-3,24.55213,R,ugm-3
06-01-2020,12:00,4.00887,R,ugm-3,16.84917,R,ugm-3,22.99601,R,ugm-3
06-01-2020,13:00,3.97105,R,ugm-3,17.54113,R,ugm-3,23.62998,R,ugm-3
06-01-2020,14:00,5.29473,R,ugm-3,20.00698,R,ugm-3,28.12544,R,ugm-3
06-01-2020,15:00,4.76525,R,ugm-3,19.55087,R,ugm-3,26.85749,R,ugm-3
06-01-2020,16:00,4.61398,R,ugm-3,20.01336,R,ugm-3,27.08803,R,ugm-3
06-01-2020,17:00,1.55060,R,ugm-3,29.78228,R,ugm-3,32.15983,R,ugm-3
06-01-2020,18:00,1.24804,R,ugm-3,30.41910,R,ugm-3,32.33273,R,ugm-3
06-01-2020,19:00,1.09677,R,ugm-3,29.49837,R,ugm-3,31.18005,R,ugm-3
06-01-2020,20:00,3.10120,R,ugm-3,38.98918,R,ugm-3,43.74429,R,ugm-3
06-01-2020,21:00,6.95878,R,ugm-3,48.05917,R,ugm-3,58.72915,R,ugm-3
06-01-2020,22:00,6.65623,R,ugm-3,48.06201,R,ugm-3,58.26808,R,ugm-3
06-01-2020,23:00,4.95435,R,ugm-3,48.07798,R,ugm-3,55.67455,R,ugm-3
06-01-2020,24:00,5.02999,R,ugm-3,48.48071,R,ugm-3,56.19325,R,ugm-3
07-01-2020,01:00,2.42114,R,ugm-3,38.87484,R,ugm-3,42.58720,R,ugm-3
07-01-2020,02:00,0.30264,R,ugm-3,28.67052,R,ugm-3,29.13457,R,ugm-3
07-01-2020,03:00,1.02142,R,ugm-3,22.18736,R,ugm-3,23.75351,R,ugm-3
07-01-2020,04:00,0.90793,R,ugm-3,16.36535,R,ugm-3,17.75748,R,ugm-3
07-01-2020,05:00,2.49680,R,ugm-3,15.94700,R,ugm-3,19.77537,R,ugm-3
07-01-2020,06:00,2.83727,R,ugm-3,14.73310,R,ugm-3,19.08353,R,ugm-3
07-01-2020,07:00,5.40973,R,ugm-3,15.05513,R,ugm-3,23.34993,R,ugm-3
07-01-2020,08:00,6.77162,R,ugm-3,19.19357,R,ugm-3,29.57658,R,ugm-3
07-01-2020,09:00,11.91654,R,ugm-3,22.14378,R,ugm-3,40.41556,R,ugm-3
07-01-2020,10:00,7.79304,R,ugm-3,18.54988,R,ugm-3,30.49905,R,ugm-3
07-01-2020,11:00,8.92795,R,ugm-3,17.78984,R,ugm-3,31.47917,R,ugm-3
07-01-2020,12:00,6.73379,R,ugm-3,16.13825,R,ugm-3,26.46326,R,ugm-3
07-01-2020,13:00,4.65313,R,ugm-3,14.88919,R,ugm-3,22.02389,R,ugm-3
07-01-2020,14:00,4.12350,R,ugm-3,16.79670,R,ugm-3,23.11932,R,ugm-3
07-01-2020,15:00,5.03143,R,ugm-3,20.82406,R,ugm-3,28.53881,R,ugm-3
07-01-2020,16:00,5.82587,R,ugm-3,18.91409,R,ugm-3,27.84696,R,ugm-3
07-01-2020,17:00,3.44256,R,ugm-3,18.99389,R,ugm-3,24.27240,R,ugm-3
07-01-2020,18:00,3.48039,R,ugm-3,17.14860,R,ugm-3,22.48512,R,ugm-3
07-01-2020,19:00,2.95076,R,ugm-3,16.05809,R,ugm-3,20.58253,R,ugm-3
07-01-2020,20:00,2.45897,R,ugm-3,14.73662,R,ugm-3,18.50698,R,ugm-3
07-01-2020,21:00,2.76161,R,ugm-3,14.56084,R,ugm-3,18.79525,R,ugm-3
07-01-2020,22:00,2.61029,R,ugm-3,12.71731,R,ugm-3,16.71970,R,ugm-3
07-01-2020,23:00,2.79944,R,ugm-3,12.36963,R,ugm-3,16.66205,R,ugm-3
07-01-2020,24:00,3.29124,R,ugm-3,11.03902,R,ugm-3,16.08551,R,ugm-3
08-01-2020,01:00,2.11910,R,ugm-3,10.43877,R,ugm-3,13.68801,R,ugm-3
08-01-2020,02:00,1.86683,R,ugm-3,8.59551,R,ugm-3,11.45794,R,ugm-3
08-01-2020,03:00,1.85422,R,ugm-3,8.34571,R,ugm-3,11.18879,R,ugm-3
08-01-2020,04:00,1.77853,R,ugm-3,8.98082,R,ugm-3,11.70786,R,ugm-3
08-01-2020,05:00,2.30831,R,ugm-3,9.78338,R,ugm-3,13.32274,R,ugm-3
08-01-2020,06:00,3.10297,R,ugm-3,10.87189,R,ugm-3,15.62971,R,ugm-3
08-01-2020,07:00,8.47641,R,ugm-3,15.20570,R,ugm-3,28.20269,R,ugm-3
08-01-2020,08:00,8.74130,R,ugm-3,21.48976,R,ugm-3,34.89289,R,ugm-3
08-01-2020,09:00,12.56325,R,ugm-3,23.93459,R,ugm-3,43.19798,R,ugm-3
08-01-2020,10:00,17.78533,R,ugm-3,29.36561,R,ugm-3,56.63607,R,ugm-3
08-01-2020,11:00,14.30394,R,ugm-3,31.81995,R,ugm-3,53.75236,R,ugm-3
08-01-2020,12:00,19.10977,R,ugm-3,35.06318,R,ugm-3,64.36441,R,ugm-3
08-01-2020,13:00,23.15876,R,ugm-3,38.08267,R,ugm-3,73.59228,R,ugm-3
08-01-2020,14:00,22.06137,R,ugm-3,39.64997,R,ugm-3,73.47693,R,ugm-3
08-01-2020,15:00,34.24621,R,ugm-3,47.32392,R,ugm-3,99.83404,R,ugm-3
08-01-2020,16:00,52.18290,R,ugm-3,50.33103,R,ugm-3,130.34370,R,ugm-3
08-01-2020,17:00,42.79830,R,ugm-3,52.78198,R,ugm-3,118.40514,R,ugm-3
08-01-2020,18:00,10.33063,R,ugm-3,42.23785,R,ugm-3,58.07792,R,ugm-3
08-01-2020,19:00,12.33621,R,ugm-3,40.77755,R,ugm-3,59.69280,R,ugm-3
08-01-2020,20:00,16.87714,R,ugm-3,41.25485,R,ugm-3,67.13277,R,ugm-3
08-01-2020,21:00,20.39636,R,ugm-3,40.12668,R,ugm-3,71.40066,R,ugm-3
08-01-2020,22:00,6.16810,R,ugm-3,31.60641,R,ugm-3,41.06403,R,ugm-3
08-01-2020,23:00,2.23263,R,ugm-3,22.29938,R,ugm-3,25.72270,R,ugm-3
08-01-2020,24:00,2.61104,R,ugm-3,19.12382,R,ugm-3,23.12736,R,ugm-3
09-01-2020,01:00,1.61502,R,ugm-3,17.13972,R,ugm-3,19.61605,R,ugm-3
09-01-2020,02:00,0.65610,R,ugm-3,12.07136,R,ugm-3,13.07736,R,ugm-3
09-01-2020,03:00,0.75704,R,ugm-3,10.78193,R,ugm-3,11.94271,R,ugm-3
09-01-2020,04:00,0.30282,R,ugm-3,9.57449,R,ugm-3,10.03880,R,ugm-3
09-01-2020,05:00,0.41637,R,ugm-3,8.70804,R,ugm-3,9.34647,R,ugm-3
09-01-2020,06:00,0.11356,R,ugm-3,10.38393,R,ugm-3,10.55805,R,ugm-3
09-01-2020,07:00,0.52993,R,ugm-3,13.72641,R,ugm-3,14.53895,R,ugm-3
09-01-2020,08:00,0.87059,R,ugm-3,17.58882,R,ugm-3,18.92371,R,ugm-3
09-01-2020,09:00,0.98415,R,ugm-3,18.04934,R,ugm-3,19.55835,R,ugm-3
09-01-2020,10:00,2.53608,R,ugm-3,15.55436,R,ugm-3,19.44296,R,ugm-3
09-01-2020,11:00,6.96476,R,ugm-3,14.01400,R,ugm-3,24.69314,R,ugm-3
09-01-2020,12:00,9.19802,R,ugm-3,16.01296,R,ugm-3,30.11640,R,ugm-3
09-01-2020,13:00,6.81335,R,ugm-3,21.80410,R,ugm-3,32.25109,R,ugm-3
09-01-2020,14:00,6.28342,R,ugm-3,24.52055,R,ugm-3,34.15500,R,ugm-3
09-01-2020,15:00,6.58624,R,ugm-3,28.96025,R,ugm-3,39.05901,R,ugm-3
09-01-2020,16:00,3.25527,R,ugm-3,35.04847,R,ugm-3,40.03981,R,ugm-3
09-01-2020,17:00,3.29312,R,ugm-3,37.41359,R,ugm-3,42.46297,R,ugm-3
09-01-2020,18:00,0.75704,R,ugm-3,29.59026,R,ugm-3,30.75104,R,ugm-3
09-01-2020,19:00,0.87059,R,ugm-3,26.93529,R,ugm-3,28.27018,R,ugm-3
09-01-2020,20:00,1.28697,R,ugm-3,30.79701,R,ugm-3,32.77033,R,ugm-3
09-01-2020,21:00,2.61178,R,ugm-3,26.68866,R,ugm-3,30.69334,R,ugm-3
09-01-2020,22:00,3.82305,R,ugm-3,16.92731,R,ugm-3,22.78923,R,ugm-3
09-01-2020,23:00,5.48853,R,ugm-3,18.00834,R,ugm-3,26.42397,R,ugm-3
09-01-2020,24:00,9.16017,R,ugm-3,29.10990,R,ugm-3,43.15530,R,ugm-3
10-01-2020,01:00,5.70466,R,ugm-3,32.26861,R,ugm-3,41.01563,R,ugm-3
10-01-2020,02:00,2.37273,R,ugm-3,26.06549,R,ugm-3,29.70363,R,ugm-3
10-01-2020,03:00,3.33192,R,ugm-3,27.78827,R,ugm-3,32.89715,R,ugm-3
10-01-2020,04:00,2.00673,R,ugm-3,25.14536,R,ugm-3,28.22229,R,ugm-3
10-01-2020,05:00,2.68826,R,ugm-3,18.55978,R,ugm-3,22.68172,R,ugm-3
10-01-2020,06:00,6.24736,R,ugm-3,12.98715,R,ugm-3,22.56629,R,ugm-3
10-01-2020,07:00,13.28983,R,ugm-3,15.92484,R,ugm-3,36.30230,R,ugm-3
10-01-2020,08:00,20.90024,R,ugm-3,22.37799,R,ugm-3,54.42458,R,ugm-3
10-01-2020,09:00,22.41475,R,ugm-3,26.63520,R,ugm-3,61.00401,R,ugm-3
10-01-2020,10:00,25.51950,R,ugm-3,28.68495,R,ugm-3,67.81430,R,ugm-3
10-01-2020,11:00,21.84681,R,ugm-3,28.89118,R,ugm-3,62.38916,R,ugm-3
10-01-2020,12:00,30.82029,R,ugm-3,34.52405,R,ugm-3,81.78116,R,ugm-3
10-01-2020,13:00,34.56870,R,ugm-3,45.97542,R,ugm-3,98.98002,R,ugm-3
10-01-2020,14:00,37.25696,R,ugm-3,51.08778,R,ugm-3,108.21431,R,ugm-3
10-01-2020,15:00,47.85853,R,ugm-3,61.38083,R,ugm-3,134.76289,R,ugm-3
10-01-2020,16:00,53.53794,R,ugm-3,59.30966,R,ugm-3,141.40003,R,ugm-3
10-01-2020,17:00,24.61079,R,ugm-3,56.97314,R,ugm-3,94.70916,R,ugm-3
10-01-2020,18:00,13.25197,R,ugm-3,50.61147,R,ugm-3,70.93087,R,ugm-3
10-01-2020,19:00,11.16951,R,ugm-3,53.05424,R,ugm-3,70.18059,R,ugm-3
10-01-2020,20:00,11.47242,R,ugm-3,50.62751,R,ugm-3,68.21830,R,ugm-3
10-01-2020,21:00,8.32981,R,ugm-3,44.53811,R,ugm-3,57.31030,R,ugm-3
10-01-2020,22:00,9.69287,R,ugm-3,41.29382,R,ugm-3,56.15601,R,ugm-3
10-01-2020,23:00,3.59696,R,ugm-3,31.76817,R,ugm-3,37.28344,R,ugm-3
10-01-2020,24:00,2.30963,R,ugm-3,26.98948,R,ugm-3,30.53086,R,ugm-3
11-01-2020,01:00,2.12092,R,ugm-3,23.15181,R,ugm-3,26.40384,R,ugm-3
11-01-2020,02:00,2.47441,R,ugm-3,18.68387,R,ugm-3,22.47791,R,ugm-3
11-01-2020,03:00,1.13621,R,ugm-3,15.11627,R,ugm-3,16.85843,R,ugm-3
11-01-2020,04:00,1.13621,R,ugm-3,13.44197,R,ugm-3,15.18413,R,ugm-3
11-01-2020,05:00,1.06046,R,ugm-3,11.36421,R,ugm-3,12.99023,R,ugm-3
11-01-2020,06:00,0.94684,R,ugm-3,12.00030,R,ugm-3,13.45210,R,ugm-3
11-01-2020,07:00,1.70431,R,ugm-3,13.32144,R,ugm-3,15.93468,R,ugm-3
11-01-2020,08:00,1.59069,R,ugm-3,13.49566,R,ugm-3,15.93468,R,ugm-3
11-01-2020,09:00,1.85581,R,ugm-3,14.64798,R,ugm-3,17.49351,R,ugm-3
11-01-2020,10:00,3.93885,R,ugm-3,17.51613,R,ugm-3,23.55561,R,ugm-3
11-01-2020,11:00,2.99201,R,ugm-3,17.29363,R,ugm-3,21.88132,R,ugm-3
11-01-2020,12:00,4.20397,R,ugm-3,16.93642,R,ugm-3,23.38241,R,ugm-3
11-01-2020,13:00,4.50696,R,ugm-3,16.52958,R,ugm-3,23.44015,R,ugm-3
11-01-2020,14:00,2.99201,R,ugm-3,14.63785,R,ugm-3,19.22554,R,ugm-3
11-01-2020,15:00,3.06776,R,ugm-3,14.52170,R,ugm-3,19.22554,R,ugm-3
11-01-2020,16:00,3.44650,R,ugm-3,14.51833,R,ugm-3,19.80288,R,ugm-3
11-01-2020,17:00,3.44650,R,ugm-3,13.94099,R,ugm-3,19.22554,R,ugm-3
11-01-2020,18:00,2.76477,R,ugm-3,13.48519,R,ugm-3,17.72444,R,ugm-3
11-01-2020,19:00,3.67374,R,ugm-3,13.65029,R,ugm-3,19.28327,R,ugm-3
11-01-2020,20:00,2.91627,R,ugm-3,12.56009,R,ugm-3,17.03163,R,ugm-3
11-01-2020,21:00,2.65115,R,ugm-3,11.40776,R,ugm-3,15.47281,R,ugm-3
11-01-2020,22:00,2.31029,R,ugm-3,11.58401,R,ugm-3,15.12640,R,ugm-3
11-01-2020,23:00,2.27242,R,ugm-3,10.94927,R,ugm-3,14.43359,R,ugm-3
11-01-2020,24:00,1.89368,R,ugm-3,10.14436,R,ugm-3,13.04796,R,ugm-3
12-01-2020,01:00,1.76794,R,ugm-3,9.14810,R,ugm-3,11.85890,R,ugm-3
12-01-2020,02:00,1.41435,R,ugm-3,8.07314,R,ugm-3,10.24178,R,ugm-3
12-01-2020,03:00,1.21230,R,ugm-3,9.98082,R,ugm-3,11.83965,R,ugm-3
12-01-2020,04:00,0.34096,R,ugm-3,9.58422,R,ugm-3,10.10702,R,ugm-3
12-01-2020,05:00,0.60615,R,ugm-3,9.63964,R,ugm-3,10.56905,R,ugm-3
12-01-2020,06:00,0.34096,R,ugm-3,9.64198,R,ugm-3,10.16477,R,ugm-3
12-01-2020,07:00,0.87134,R,ugm-3,10.90789,R,ugm-3,12.24393,R,ugm-3
12-01-2020,08:00,0.75769,R,ugm-3,13.39234,R,ugm-3,14.55411,R,ugm-3
12-01-2020,09:00,0.56827,R,ugm-3,13.74053,R,ugm-3,14.61186,R,ugm-3
12-01-2020,10:00,0.94711,R,ugm-3,15.41207,R,ugm-3,16.86428,R,ugm-3
12-01-2020,11:00,2.23518,R,ugm-3,16.90232,R,ugm-3,20.32955,R,ugm-3
12-01-2020,12:00,4.12940,R,ugm-3,10.12834,R,ugm-3,16.46000,R,ugm-3
12-01-2020,13:00,5.03863,R,ugm-3,12.14173,R,ugm-3,19.86751,R,ugm-3
12-01-2020,14:00,8.33457,R,ugm-3,16.21321,R,ugm-3,28.99271,R,ugm-3
12-01-2020,15:00,12.84281,R,ugm-3,20.90930,R,ugm-3,40.60134,R,ugm-3
12-01-2020,16:00,10.07725,R,ugm-3,25.95833,R,ugm-3,41.40990,R,ugm-3
12-01-2020,17:00,12.53974,R,ugm-3,31.42328,R,ugm-3,50.65060,R,ugm-3
12-01-2020,18:00,9.09226,R,ugm-3,29.89432,R,ugm-3,43.83559,R,ugm-3
12-01-2020,19:00,6.81919,R,ugm-3,25.92932,R,ugm-3,36.38527,R,ugm-3
12-01-2020,20:00,7.95573,R,ugm-3,25.39950,R,ugm-3,37.59811,R,ugm-3
12-01-2020,21:00,5.64478,R,ugm-3,24.38031,R,ugm-3,33.03551,R,ugm-3
12-01-2020,22:00,6.13727,R,ugm-3,24.26046,R,ugm-3,33.67081,R,ugm-3
12-01-2020,23:00,3.52325,R,ugm-3,22.60864,R,ugm-3,28.01088,R,ugm-3
12-01-2020,24:00,3.86421,R,ugm-3,22.77890,R,ugm-3,28.70393,R,ugm-3
13-01-2020,01:00,2.52635,R,ugm-3,19.31313,R,ugm-3,23.18681,R,ugm-3
13-01-2020,02:00,2.12213,R,ugm-3,14.84877,R,ugm-3,18.10266,R,ugm-3
13-01-2020,03:00,1.78108,R,ugm-3,11.82822,R,ugm-3,14.55916,R,ugm-3
13-01-2020,04:00,1.21265,R,ugm-3,9.57998,R,ugm-3,11.43934,R,ugm-3
13-01-2020,05:00,1.59160,R,ugm-3,9.92331,R,ugm-3,12.36373,R,ugm-3
13-01-2020,06:00,1.85687,R,ugm-3,10.96094,R,ugm-3,13.80809,R,ugm-3
13-01-2020,07:00,2.50109,R,ugm-3,13.43962,R,ugm-3,17.27456,R,ugm-3
13-01-2020,08:00,5.00217,R,ugm-3,18.67526,R,ugm-3,26.34515,R,ugm-3
13-01-2020,09:00,4.62322,R,ugm-3,19.08299,R,ugm-3,26.17182,R,ugm-3
13-01-2020,10:00,4.09268,R,ugm-3,17.87436,R,ugm-3,24.14972,R,ugm-3
13-01-2020,11:00,6.13903,R,ugm-3,18.95421,R,ugm-3,28.36725,R,ugm-3
13-01-2020,12:00,3.03162,R,ugm-3,16.95923,R,ugm-3,21.60764,R,ugm-3
13-01-2020,13:00,3.33478,R,ugm-3,19.49866,R,ugm-3,24.61191,R,ugm-3
13-01-2020,14:00,3.14530,R,ugm-3,20.82912,R,ugm-3,25.65185,R,ugm-3
13-01-2020,15:00,2.31161,R,ugm-3,19.68091,R,ugm-3,23.22533,R,ugm-3
13-01-2020,16:00,3.10741,R,ugm-3,20.30948,R,ugm-3,25.07411,R,ugm-3
13-01-2020,17:00,1.44002,R,ugm-3,20.43958,R,ugm-3,22.64758,R,ugm-3
13-01-2020,18:00,1.13686,R,ugm-3,16.34025,R,ugm-3,18.08340,R,ugm-3
13-01-2020,19:00,0.64422,R,ugm-3,13.16695,R,ugm-3,14.15474,R,ugm-3
13-01-2020,20:00,1.02317,R,ugm-3,13.27919,R,ugm-3,14.84803,R,ugm-3
13-01-2020,21:00,0.56843,R,ugm-3,10.97218,R,ugm-3,11.84376,R,ugm-3
13-01-2020,22:00,0.79580,R,ugm-3,11.77904,R,ugm-3,12.99925,R,ugm-3
13-01-2020,23:00,1.17475,R,ugm-3,24.42834,R,ugm-3,26.22960,R,ugm-3
13-01-2020,24:00,0.90949,R,ugm-3,20.09757,R,ugm-3,21.49209,R,ugm-3
14-01-2020,01:00,0.45487,R,ugm-3,13.48145,R,ugm-3,14.17892,R,ugm-3
14-01-2020,02:00,0.70758,R,ugm-3,13.17104,R,ugm-3,14.25597,R,ugm-3
14-01-2020,03:00,0.79603,R,ugm-3,13.97939,R,ugm-3,15.19995,R,ugm-3
14-01-2020,04:00,0.45487,R,ugm-3,11.26600,R,ugm-3,11.96346,R,ugm-3
14-01-2020,05:00,0.83393,R,ugm-3,12.07185,R,ugm-3,13.35053,R,ugm-3
14-01-2020,06:00,1.13718,R,ugm-3,11.66467,R,ugm-3,13.40832,R,ugm-3
14-01-2020,07:00,4.66244,R,ugm-3,14.29278,R,ugm-3,21.44176,R,ugm-3
14-01-2020,08:00,4.96569,R,ugm-3,16.48635,R,ugm-3,24.10030,R,ugm-3
14-01-2020,09:00,5.26894,R,ugm-3,20.29817,R,ugm-3,28.37710,R,ugm-3
14-01-2020,10:00,4.13176,R,ugm-3,17.88062,R,ugm-3,24.21589,R,ugm-3
14-01-2020,11:00,3.71479,R,ugm-3,18.80893,R,ugm-3,24.50486,R,ugm-3
14-01-2020,12:00,1.09928,R,ugm-3,21.31668,R,ugm-3,23.00221,R,ugm-3
14-01-2020,13:00,1.44043,R,ugm-3,15.76546,R,ugm-3,17.97409,R,ugm-3
14-01-2020,14:00,0.83393,R,ugm-3,17.33115,R,ugm-3,18.60983,R,ugm-3
14-01-2020,15:00,0.64440,R,ugm-3,15.13659,R,ugm-3,16.12466,R,ugm-3
14-01-2020,16:00,0.94765,R,ugm-3,18.37047,R,ugm-3,19.82351,R,ugm-3
14-01-2020,17:00,0.72022,R,ugm-3,16.86977,R,ugm-3,17.97409,R,ugm-3
14-01-2020,18:00,0.68231,R,ugm-3,14.84729,R,ugm-3,15.89349,R,ugm-3
14-01-2020,19:00,0.87184,R,ugm-3,14.03653,R,ugm-3,15.37334,R,ugm-3
14-01-2020,20:00,0.68231,R,ugm-3,12.41992,R,ugm-3,13.46612,R,ugm-3
14-01-2020,21:00,0.34115,R,ugm-3,11.61375,R,ugm-3,12.13684,R,ugm-3
14-01-2020,22:00,0.72022,R,ugm-3,11.49489,R,ugm-3,12.59920,R,ugm-3
14-01-2020,23:00,0.68231,R,ugm-3,10.97506,R,ugm-3,12.02125,R,ugm-3
14-01-2020,24:00,0.56859,R,ugm-3,9.35780,R,ugm-3,10.22963,R,ugm-3
15-01-2020,01:00,0.50556,R,ugm-3,8.16680,R,ugm-3,8.94198,R,ugm-3
15-01-2020,02:00,0.70778,R,ugm-3,8.08799,R,ugm-3,9.17324,R,ugm-3
15-01-2020,03:00,0.18959,R,ugm-3,7.05176,R,ugm-3,7.34245,R,ugm-3
15-01-2020,04:00,0.30334,R,ugm-3,7.62893,R,ugm-3,8.09404,R,ugm-3
15-01-2020,05:00,0.87209,R,ugm-3,15.48685,R,ugm-3,16.82403,R,ugm-3
15-01-2020,06:00,1.93376,R,ugm-3,32.12837,R,ugm-3,35.09343,R,ugm-3
15-01-2020,07:00,4.20877,R,ugm-3,43.15152,R,ugm-3,49.60488,R,ugm-3
15-01-2020,08:00,11.18548,R,ugm-3,52.80477,R,ugm-3,69.95559,R,ugm-3
15-01-2020,09:00,8.26588,R,ugm-3,53.06097,R,ugm-3,65.73513,R,ugm-3
15-01-2020,10:00,3.71585,R,ugm-3,47.66526,R,ugm-3,53.36282,R,ugm-3
15-01-2020,11:00,1.06167,R,ugm-3,34.83383,R,ugm-3,36.46170,R,ugm-3
15-01-2020,12:00,,,,,,,,,
15-01-2020,13:00,3.07127,R,ugm-3,37.72666,R,ugm-3,42.43587,R,ugm-3
15-01-2020,14:00,1.51667,R,ugm-3,31.32253,R,ugm-3,33.64806,R,ugm-3
15-01-2020,15:00,1.55459,R,ugm-3,30.91750,R,ugm-3,33.30118,R,ugm-3
15-01-2020,16:00,5.83920,R,ugm-3,27.12296,R,ugm-3,36.07627,R,ugm-3
15-01-2020,17:00,10.42714,R,ugm-3,21.88047,R,ugm-3,37.86852,R,ugm-3
15-01-2020,18:00,9.55505,R,ugm-3,18.70812,R,ugm-3,33.35899,R,ugm-3